TimeCDT,TemperatureF,Dew PointF,Humidity,Sea Level PressureIn,VisibilityMPH,Wind Direction,Wind SpeedMPH,Gust SpeedMPH,PrecipitationIn,Events,Conditions,WindDirDegrees,DateUTC
12:15 AM,28.4,26.6,93,30.10,10.0,Calm,Calm,-,N/A,,Clear,0,2011-10-28 05:15:00
12:35 AM,28.4,26.6,93,30.10,10.0,Calm,Calm,-,N/A,,Clear,0,2011-10-28 05:35:00
12:55 AM,26.6,24.8,93,30.10,10.0,Calm,Calm,-,N/A,,Clear,0,2011-10-28 05:55:00
1:15 AM,28.4,26.6,93,30.11,7.0,Calm,Calm,-,N/A,,Clear,0,2011-10-28 06:15:00
1:35 AM,26.6,26.6,100,30.11,10.0,Calm,Calm,-,N/A,,Clear,0,2011-10-28 06:35:00
1:55 AM,26.6,24.8,93,30.11,10.0,Calm,Calm,-,N/A,,Clear,0,2011-10-28 06:55:00
2:15 AM,26.6,24.8,93,30.11,10.0,Calm,Calm,-,N/A,,Clear,0,2011-10-28 07:15:00
2:35 AM,26.6,24.8,93,30.11,10.0,Calm,Calm,-,N/A,,Clear,0,2011-10-28 07:35:00
2:55 AM,24.8,23.0,93,30.11,10.0,Calm,Calm,-,N/A,,Scattered Clouds,0,2011-10-28 07:55:00
3:15 AM,26.6,23.0,86,30.11,10.0,Calm,Calm,-,N/A,,Clear,0,2011-10-28 08:15:00
3:35 AM,26.6,24.8,93,30.11,0.5,Calm,Calm,-,N/A,Fog,Light Freezing Fog,0,2011-10-28 08:35:00
3:55 AM,24.8,24.8,100,30.11,0.8,Calm,Calm,-,N/A,,Overcast,0,2011-10-28 08:55:00
4:15 AM,24.8,24.8,100,30.10,0.5,Calm,Calm,-,N/A,Fog,Light Freezing Fog,0,2011-10-28 09:15:00
4:35 AM,24.8,23.0,93,30.10,7.0,Calm,Calm,-,N/A,,Clear,0,2011-10-28 09:35:00
4:55 AM,24.8,23.0,93,30.10,7.0,Calm,Calm,-,N/A,,Clear,0,2011-10-28 09:55:00
5:15 AM,24.8,23.0,93,30.10,7.0,Calm,Calm,-,N/A,,Clear,0,2011-10-28 10:15:00
5:35 AM,24.8,23.0,93,30.10,10.0,Calm,Calm,-,N/A,,Clear,0,2011-10-28 10:35:00
6:15 AM,23.0,21.2,93,30.10,7.0,Calm,Calm,-,N/A,,Clear,0,2011-10-28 11:15:00
6:35 AM,24.8,23.0,93,30.10,5.0,Calm,Calm,-,N/A,,Clear,0,2011-10-28 11:35:00
6:55 AM,24.8,23.0,93,30.10,10.0,Calm,Calm,-,N/A,,Clear,0,2011-10-28 11:55:00
7:15 AM,23.0,21.2,93,30.10,7.0,Calm,Calm,-,N/A,,Clear,0,2011-10-28 12:15:00
7:35 AM,23.0,21.2,93,30.10,7.0,Calm,Calm,-,N/A,,Clear,0,2011-10-28 12:35:00
7:55 AM,24.8,21.2,86,30.10,7.0,Calm,Calm,-,N/A,,Clear,0,2011-10-28 12:55:00
8:15 AM,24.8,21.2,86,30.11,10.0,Calm,Calm,-,N/A,,Clear,0,2011-10-28 13:15:00
8:35 AM,26.6,24.8,93,30.10,7.0,Calm,Calm,-,N/A,,Clear,0,2011-10-28 13:35:00
8:55 AM,30.2,28.4,93,30.10,7.0,Calm,Calm,-,N/A,,Clear,0,2011-10-28 13:55:00
9:15 AM,33.8,30.2,87,30.10,5.0,Calm,Calm,-,N/A,,Clear,0,2011-10-28 14:15:00
9:35 AM,37.4,33.8,87,30.10,10.0,Calm,Calm,-,N/A,,Mostly Cloudy,0,2011-10-28 14:35:00
10:15 AM,37.4,33.8,87,30.08,10.0,Calm,Calm,-,N/A,,Overcast,0,2011-10-28 15:15:00
10:35 AM,41.0,35.6,81,30.08,10.0,Calm,Calm,-,N/A,,Scattered Clouds,0,2011-10-28 15:35:00
10:55 AM,44.6,35.6,71,30.08,10.0,Calm,Calm,-,N/A,,Clear,0,2011-10-28 15:55:00
11:15 AM,46.4,33.8,62,30.07,10.0,South,4.6,-,N/A,,Clear,190,2011-10-28 16:15:00
11:35 AM,46.4,32.0,57,30.07,10.0,SW,3.5,-,N/A,,Clear,220,2011-10-28 16:35:00
11:55 AM,48.2,30.2,50,30.06,10.0,SW,8.1,-,N/A,,Clear,220,2011-10-28 16:55:00
12:15 PM,50.0,28.4,43,30.05,10.0,SW,5.8,-,N/A,,Scattered Clouds,220,2011-10-28 17:15:00
12:35 PM,50.0,26.6,40,30.05,10.0,SW,5.8,9.2,N/A,,Scattered Clouds,230,2011-10-28 17:35:00
12:55 PM,50.0,28.4,43,30.04,10.0,SSW,9.2,-,N/A,,Scattered Clouds,200,2011-10-28 17:55:00
1:15 PM,51.8,28.4,41,30.03,10.0,SSW,6.9,-,N/A,,Scattered Clouds,200,2011-10-28 18:15:00
1:35 PM,51.8,26.6,38,30.02,10.0,South,9.2,-,N/A,,Mostly Cloudy,180,2011-10-28 18:35:00
1:55 PM,51.8,23.0,33,30.01,10.0,SSW,6.9,-,N/A,,Mostly Cloudy,200,2011-10-28 18:55:00
2:15 PM,50.0,24.8,37,30.01,10.0,SW,6.9,-,N/A,,Mostly Cloudy,230,2011-10-28 19:15:00
2:35 PM,50.0,23.0,35,30.00,10.0,SSW,3.5,-,N/A,,Mostly Cloudy,210,2011-10-28 19:35:00
2:55 PM,51.8,24.8,35,29.99,10.0,South,9.2,16.1,N/A,,Mostly Cloudy,170,2011-10-28 19:55:00
3:15 PM,51.8,24.8,35,29.98,10.0,South,9.2,-,N/A,,Mostly Cloudy,180,2011-10-28 20:15:00
3:35 PM,50.0,24.8,37,29.98,10.0,SSW,8.1,-,N/A,,Overcast,210,2011-10-28 20:35:00
3:55 PM,50.0,24.8,37,29.98,10.0,South,8.1,-,N/A,,Overcast,190,2011-10-28 20:55:00
4:15 PM,48.2,26.6,43,29.99,10.0,SSW,10.4,-,N/A,,Overcast,200,2011-10-28 21:15:00
4:35 PM,48.2,26.6,43,29.99,10.0,SSW,6.9,-,N/A,,Overcast,210,2011-10-28 21:35:00
4:55 PM,46.4,30.2,53,29.99,10.0,SW,12.7,21.9,N/A,,Overcast,220,2011-10-28 21:55:00
5:15 PM,46.4,30.2,53,29.99,10.0,SW,9.2,-,N/A,,Overcast,220,2011-10-28 22:15:00
5:35 PM,44.6,33.8,66,30.00,10.0,SSW,8.1,-,N/A,Rain,Rain,210,2011-10-28 22:35:00
5:55 PM,42.8,35.6,76,30.00,10.0,Calm,Calm,-,N/A,Rain,Light Rain,0,2011-10-28 22:55:00
6:15 PM,42.8,35.6,76,30.00,10.0,SE,3.5,-,N/A,,Drizzle,130,2011-10-28 23:15:00
6:35 PM,41.0,35.6,81,30.00,10.0,Calm,Calm,-,N/A,,Scattered Clouds,0,2011-10-28 23:35:00
6:55 PM,37.4,33.8,87,30.00,10.0,Calm,Calm,-,N/A,,Scattered Clouds,0,2011-10-28 23:55:00
7:15 PM,37.4,35.6,93,30.00,10.0,Calm,Calm,-,N/A,,Mostly Cloudy,0,2011-10-29 00:15:00
7:35 PM,35.6,33.8,93,29.99,10.0,Calm,Calm,-,N/A,,Scattered Clouds,0,2011-10-29 00:35:00
8:15 PM,33.8,30.2,87,29.99,10.0,Calm,Calm,-,N/A,,Clear,0,2011-10-29 01:15:00
8:35 PM,32.0,30.2,93,30.00,10.0,Calm,Calm,-,N/A,,Clear,0,2011-10-29 01:35:00
8:55 PM,32.0,30.2,93,30.00,10.0,Calm,Calm,-,N/A,,Clear,0,2011-10-29 01:55:00
9:15 PM,32.0,30.2,93,30.00,7.0,Calm,Calm,-,N/A,,Clear,0,2011-10-29 02:15:00
9:35 PM,30.2,30.2,100,30.00,10.0,Calm,Calm,-,N/A,,Clear,0,2011-10-29 02:35:00
9:55 PM,28.4,28.4,100,29.99,5.0,Calm,Calm,-,N/A,,Clear,0,2011-10-29 02:55:00
10:15 PM,28.4,28.4,100,29.99,7.0,Calm,Calm,-,N/A,,Clear,0,2011-10-29 03:15:00
10:35 PM,28.4,26.6,93,29.99,7.0,Calm,Calm,-,N/A,,Clear,0,2011-10-29 03:35:00
10:55 PM,28.4,26.6,93,29.98,10.0,Calm,Calm,-,N/A,,Scattered Clouds,0,2011-10-29 03:55:00
11:15 PM,28.4,26.6,93,29.98,7.0,Calm,Calm,-,N/A,,Mostly Cloudy,0,2011-10-29 04:15:00
11:35 PM,28.4,26.6,93,29.98,10.0,Calm,Calm,-,N/A,,Overcast,0,2011-10-29 04:35:00
11:55 PM,32.0,30.2,93,29.98,7.0,Calm,Calm,-,N/A,,Overcast,0,2011-10-29 04:55:00